Hourly Data Report for October 27, 2015

All times are specified in Local Standard Time (LST). Add 1 hour to adjust for Daylight Saving Time where and when it is observed.

SAINT JOHN A
NEW BRUNSWICK

45°18'58.000" N
65°53'24.000" W
108.80 m
8104901
71609
YSJ

Download Data

Hourly Data (October 2015)
Hourly Data Report for October 27, 2015
Temp Definition
°C
Dew Point Temp Definition
°C
Rel Hum Definition
%
Wind Dir Definition
10's deg

Wind Spd Definition
km/h
Visibility Definition
km
Stn Press Definition
kPa
Hmdx Definition


Wind Chill Definition


Weather Definition


TIME
00:00 Legend Double Dagger -3.6 -5.8 85 36 3 24.1 101.84   -5 LegendNANA
01:00 Legend Double Dagger -4.2 -5.9 88 20 6 24.1 101.88   -7 LegendNANA
02:00 Legend Double Dagger -6.1 -7.2 92 36 1 24.1 101.91   -7 Clear
03:00 Legend Double Dagger -6.3 -7.1 94 36 2 24.1 101.91   -7 LegendNANA
04:00 Legend Double Dagger -6.6 -7.6 93 3 3 24.1 101.91   -8 LegendNANA
05:00 Legend Double Dagger -7.2 -8.3 92 36 3 24.1 101.92   -9 Clear
06:00 Legend Double Dagger -7.4 -8.5 92 0 1 24.1 101.93   -8 LegendNANA
07:00 Legend Double Dagger -6.6 -7.8 91 36 2 24.1 102.00   -8 LegendNANA
08:00 Legend Double Dagger -3.2 -4.2 93 36 2 24.1 102.06   -4 Mainly Clear
09:00 Legend Double Dagger 1.0 -3.5 72 31 11 24.1 102.11     LegendNANA
10:00 Legend Double Dagger 3.2 -5.5 53 26 11 24.1 102.12     LegendNANA
11:00 Legend Double Dagger 5.2 -6.1 44 27 14 24.1 102.08     Mainly Clear
12:00 Legend Double Dagger 5.9 -5.4 44 27 17 24.1 102.03     LegendNANA
13:00 Legend Double Dagger 7.0 -5.0 42 27 16 24.1 101.96     LegendNANA
14:00 Legend Double Dagger 7.5 -4.9 41 27 20 24.1 101.89     Mainly Clear
15:00 Legend Double Dagger 8.0 -4.8 40 28 18 24.1 101.85     LegendNANA
16:00 Legend Double Dagger 7.3 -2.7 49 24 17 24.1 101.83     LegendNANA
17:00 Legend Double Dagger 5.8 -3.3 52 24 14 24.1 101.82     Mainly Clear
18:00 Legend Double Dagger 3.8 -3.7 58 24 13 24.1 101.83     LegendNANA
19:00 Legend Double Dagger 3.7 -3.6 59 24 5 24.1 101.88     LegendNANA
20:00 Legend Double Dagger -1.5 -3.9 84 21 3 24.1 101.91   -3 Clear
21:00 Legend Double Dagger -1.5 -3.1 89 27 4 24.1 101.96   -3 LegendNANA
22:00 Legend Double Dagger -1.8 -3.5 88 26 7 24.1 101.98   -4 LegendNANA
23:00 Legend Double Dagger 2.0 -1.8 76 26 8 24.1 102.01     Clear

Notes on Data Quality.

Legend

  • E = Estimated
  • M = Missing
  • NA = Not Available
  • ‡ = Partner data that is not subject to review by the National Climate Archives
Date modified: